Cosmos 2082 Rocket - Orbit

View from above orbital plane
View from above orbital plane
View from above satellite
View from above satellite

Ground track
Ground track

The orbit data is extracted from the following two-line orbital elements,

1 20625U 90046B   13169.17737769 -.00000303  00000-0 -13323-3 0  4652
2 20625 071.0001 333.1295 0013711 174.2558 227.1544 14.14479513191372
Epoch (UTC): 18 June 2013 04:15:25
Eccentricity: 0.0013711
inclination: 71.0001°
perigee height: 834 km
apogee height: 854 km
right ascension of ascending node: 333.1295°
argument of perigee: 174.2558°
revolutions per day: 14.14479513
mean anomaly at epoch: 227.1544°
orbit number at epoch: 19137

The dashed part of the orbit path shows where the satellite is in the earth's shadow,  

Developed and maintained by Chris Peat, Heavens-Above GmbH. Please read the updated FAQ before sending e-mail. Imprint. DLR